Location: *
(49.4547°N, 7.9131°E)
Time: 05:53:32
(UTC+00:00)

Cosmos 1420 Rocket - Pass Details

Date: 22 September 2019
Orbit: 754 x 781 km, 74.0° (Epoch: 17 October)

Event Time Altitude Azimuth Distance (km) Brightness Sun altitude
Rises 19:09:46 0° 187° (S) 3,244 7.1 -17.1°
Reaches altitude 10° 19:12:10 10° 182° (S) 2,324 6.3 -17.5°
Maximum altitude 19:17:18 53° 107° (ESE) 953 4.1 -18.2°
Drops below altitude 10° 19:22:28 10° 31° (NNE) 2,347 6.4 -19.0°
Sets 19:24:55 0° 27° (NNE) 3,280 7.2 -19.4°
